Volver al catálogo

SPACEMOBILE-003

ActivoComunicacionesVLEO
NORAD 61045·PAYLOAD·🇺🇸 United States

Lanzado Sep 12, 2024 desde Cape Canaveral Space Force Station

Loading…

Próximos Pases (próximas 24 horas)

TLE

ActualizadoSource: CelesTrak SupGP

Época: Sep 15, 2026, 05:08 UTC

1 61045C 24163A   26258.21457140 -.00200940  00000+0 -90748-2 0  2583
2 61045  52.9663 255.5005 0005832  34.7712  89.0153 15.20453653    14

Sigue SPACEMOBILE-003 en tiempo real con AllMySat

Download on the App Store